Date,TemperatureHighF,TemperatureAvgF,TemperatureLowF,DewpointHighF,DewpointAvgF,DewpointLowF,HumidityHigh,HumidityAvg,HumidityLow,PressureMaxIn,PressureMinIn,WindSpeedMaxMPH,WindSpeedAvgMPH,GustSpeedMaxMPH,PrecipitationSumIn
2013-2-1,29.7,26.1,23.3,20.0,15.0,9.3,78,63,50,30.17,30.03,23,13,40,0.00
2013-2-2,35.3,29.7,24.8,13.4,6.7,0.8,59,39,26,30.35,30.07,24,10,51,0.00
2013-2-3,41.8,34.1,28.5,3.5,-2.7,-12.0,32,21,11,30.17,29.82,14,6,28,0.01
2013-2-4,35.9,30.1,26.9,3.4,0.3,-2.6,33,27,23,29.98,29.84,15,9,35,0.00
2013-2-5,37.2,35.3,33.1,18.1,17.4,16.5,52,48,43,29.85,29.74,6,3,10,0.00
2013-2-6,39.9,33.7,24.7,22.7,16.7,12.6,73,50,38,30.00,29.66,10,4,15,0.00
2013-2-7,36.9,26.3,17.5,12.2,-0.1,-9.7,65,34,14,30.22,29.98,10,4,15,0.00
2013-2-8,39.6,27.2,17.2,14.5,-0.1,-10.1,67,32,17,30.06,29.63,6,1,11,0.00
2013-2-9,26.6,22.1,16.7,19.5,13.7,5.4,80,70,55,29.76,29.48,7,1,15,0.00
2013-2-10,22.1,17.0,10.4,12.6,6.9,1.9,76,64,48,30.10,29.56,6,2,9,0.00
2013-2-11,19.2,9.4,-0.6,11.2,2.5,-7.4,84,73,68,30.29,30.08,4,0,7,0.00
2013-2-13,24.2,18.8,16.9,9.9,5.0,2.7,57,54,49,30.14,30.00,19,13,30,0.00
2013-2-14,21.3,14.5,10.7,12.4,8.0,5.5,80,75,68,30.38,30.18,4,1,6,0.00
2013-2-15,23.2,17.8,9.2,11.7,8.0,3.8,84,66,51,30.47,30.23,16,7,29,0.00
2013-2-16,34.9,28.4,21.4,11.9,7.9,1.6,65,42,28,30.33,29.97,20,12,35,0.00
2013-2-17,42.3,32.6,19.9,13.7,0.8,-8.5,65,28,15,29.98,29.49,17,8,34,0.01
2013-2-18,22.7,17.9,9.0,8.1,0.8,-5.9,64,47,32,30.24,29.61,12,6,21,0.00
2013-2-19,37.2,23.5,8.3,7.4,-3.5,-16.7,58,33,12,30.24,29.69,9,2,18,0.00
2013-2-20,31.9,21.4,15.1,13.4,7.8,3.0,78,57,32,29.81,29.59,5,1,9,0.00
2013-2-21,22.2,15.7,10.0,13.1,9.2,4.1,81,75,66,30.01,29.61,8,1,14,0.00
2013-2-22,26.4,18.3,13.5,14.4,4.1,-2.3,72,54,41,30.05,29.84,16,6,32,0.00
2013-2-23,35.6,23.4,14.0,14.6,5.3,-1.7,61,46,37,29.92,29.60,19,10,40,0.00
2013-2-25,28.2,24.5,23.0,6.8,4.4,1.3,46,42,35,30.02,29.76,10,8,15,0.00
2013-2-26,25.4,20.3,11.7,16.5,11.1,5.3,80,68,42,30.21,29.73,10,2,20,0.00
2013-2-27,23.0,14.8,6.7,6.8,0.5,-10.1,77,54,32,30.43,30.20,13,6,21,0.00
2013-2-28,24.8,18.8,12.6,10.4,2.8,-2.8,64,50,35,30.41,30.30,18,8,30,0.00